When you browse on this site, cookies collect data to enhance your experience and personalize the content and advertising you see.
Visit our Privacy Policy to learn more. By continuing to use the site, you agree to this use of cookies and data.
  • In Hungary
  • List of Countries
  • For 7 days
  • Water Temperature
  • Weather Map
  • News
  • Weather Widgets
  • user-avatar
    Login

    Hourly Weather Vyshniy Turovec

    Today, 17 October, Thursday

    Time Temperature Precipitation Wind Pressure Humidity
    00:00 +8°C° 0 mm 5 mps 752 mmHg 82%
    01:00 +8°C° 0 mm 4 mps 751 mmHg 84%
    02:00 +8°C° 0 mm 4 mps 751 mmHg 88%
    03:00 +8°C° 0 mm 4 mps 751 mmHg 89%
    04:00 +8°C° 0 mm 4 mps 751 mmHg 91%
    05:00 +8°C° 0 mm 4 mps 751 mmHg 92%
    06:00 +8°C° 0 mm 5 mps 750 mmHg 91%
    07:00 +9°C° 0 mm 5 mps 750 mmHg 90%
    08:00 +10°C° 0 mm 5 mps 751 mmHg 88%
    09:00 +12°C° 0 mm 5 mps 750 mmHg 83%
    10:00 +14°C° 0 mm 5 mps 750 mmHg 79%
    11:00 +15°C° 0 mm 5 mps 750 mmHg 74%
    12:00 +16°C° 0 mm 5 mps 750 mmHg 71%
    13:00 +17°C° 0 mm 6 mps 749 mmHg 69%
    14:00 +19°C° 0 mm 6 mps 749 mmHg 66%
    15:00 +17°C° 0 mm 5 mps 748 mmHg 71%
    16:00 +16°C° 0 mm 5 mps 748 mmHg 76%
    17:00 +14°C° 0 mm 4 mps 748 mmHg 81%
    18:00 +14°C° 0 mm 4 mps 748 mmHg 83%
    19:00 +13°C° 0 mm 4 mps 748 mmHg 85%
    20:00 +13°C° 0 mm 4 mps 748 mmHg 87%
    21:00 +12°C° 0 mm 4 mps 748 mmHg 87%
    22:00 +12°C° 0 mm 3 mps 748 mmHg 86%
    23:00 +12°C° 0 mm 3 mps 748 mmHg 86%

    Tomorrow, 18 October, Friday

    Time Temperature Precipitation Wind Pressure Humidity
    00:00 +11°C° 0 mm 3 mps 748 mmHg 86%
    01:00 +11°C° 0 mm 3 mps 748 mmHg 86%
    02:00 +10°C° 0 mm 3 mps 748 mmHg 87%
    03:00 +10°C° 0 mm 3 mps 748 mmHg 88%
    04:00 +9°C° 0 mm 3 mps 748 mmHg 90%
    05:00 +9°C° 0 mm 3 mps 748 mmHg 91%
    06:00 +10°C° 0 mm 3 mps 748 mmHg 88%
    07:00 +10°C° 0 mm 3 mps 748 mmHg 85%
    08:00 +11°C° 0 mm 3 mps 748 mmHg 83%
    09:00 +12°C° 0 mm 3 mps 749 mmHg 78%
    10:00 +13°C° 0 mm 3 mps 749 mmHg 74%
    11:00 +16°C° 0 mm 3 mps 749 mmHg 70%
    12:00 +16°C° 0 mm 3 mps 749 mmHg 69%
    13:00 +16°C° 0 mm 3 mps 749 mmHg 67%
    14:00 +17°C° 0 mm 3 mps 749 mmHg 66%
    15:00 +16°C° 0 mm 3 mps 749 mmHg 71%
    16:00 +15°C° 0 mm 2 mps 749 mmHg 76%
    17:00 +14°C° 0 mm 2 mps 749 mmHg 81%
    18:00 +13°C° 0 mm 2 mps 749 mmHg 83%
    19:00 +13°C° 0 mm 1 mps 749 mmHg 85%
    20:00 +12°C° 0 mm 1 mps 750 mmHg 88%
    21:00 +12°C° 0 mm 1 mps 750 mmHg 89%
    22:00 +11°C° 0 mm 1 mps 750 mmHg 90%
    23:00 +10°C° 0 mm 0 mps 750 mmHg 91%

    Day after tomorrow, 19 October, Saturday

    Time Temperature Precipitation Wind Pressure Humidity
    00:00 +10°C° 0 mm 0 mps 750 mmHg 92%
    01:00 +11°C° 0 mm 1 mps 750 mmHg 92%
    02:00 +10°C° 0 mm 1 mps 750 mmHg 92%
    03:00 +10°C° 0 mm 1 mps 750 mmHg 92%
    04:00 +10°C° 0 mm 1 mps 750 mmHg 93%
    05:00 +10°C° 0 mm 1 mps 751 mmHg 93%
    06:00 +11°C° 0 mm 1 mps 751 mmHg 91%
    07:00 +11°C° 0 mm 1 mps 751 mmHg 89%
    08:00 +12°C° 0 mm 1 mps 751 mmHg 87%
    09:00 +13°C° 0 mm 1 mps 751 mmHg 82%
    10:00 +14°C° 0 mm 2 mps 751 mmHg 76%
    11:00 +16°C° 0 mm 2 mps 752 mmHg 70%
    12:00 +16°C° 0 mm 2 mps 751 mmHg 68%
    13:00 +17°C° 0 mm 2 mps 751 mmHg 66%
    14:00 +17°C° 0 mm 2 mps 751 mmHg 63%
    15:00 +16°C° 0 mm 2 mps 751 mmHg 68%
    16:00 +15°C° 0 mm 2 mps 751 mmHg 73%
    17:00 +14°C° 0 mm 2 mps 751 mmHg 78%
    18:00 +14°C° 0 mm 2 mps 751 mmHg 80%
    19:00 +13°C° 0 mm 2 mps 752 mmHg 82%
    20:00 +13°C° 0 mm 2 mps 752 mmHg 84%
    21:00 +12°C° 0 mm 2 mps 752 mmHg 85%
    22:00 +12°C° 0 mm 2 mps 752 mmHg 86%
    23:00 +12°C° 0 mm 2 mps 752 mmHg 87%

    20 October, Sunday

    Time Temperature Precipitation Wind Pressure Humidity
    00:00 +10°C° 0 mm 2 mps 752 mmHg 87%
    01:00 +10°C° 0 mm 2 mps 752 mmHg 87%
    02:00 +10°C° 0 mm 2 mps 752 mmHg 87%
    03:00 +9°C° 0 mm 2 mps 752 mmHg 88%
    04:00 +9°C° 0 mm 2 mps 752 mmHg 88%
    05:00 +9°C° 0 mm 2 mps 752 mmHg 88%
    06:00 +10°C° 0 mm 2 mps 752 mmHg 86%
    07:00 +10°C° 0 mm 2 mps 753 mmHg 83%
    08:00 +12°C° 0 mm 2 mps 753 mmHg 81%
    09:00 +12°C° 0 mm 3 mps 753 mmHg 76%
    10:00 +14°C° 0 mm 3 mps 753 mmHg 71%
    11:00 +16°C° 0 mm 3 mps 753 mmHg 66%
    12:00 +17°C° 0 mm 3 mps 752 mmHg 64%
    13:00 +18°C° 0 mm 3 mps 752 mmHg 62%
    14:00 +18°C° 0 mm 4 mps 752 mmHg 61%
    15:00 +17°C° 0 mm 3 mps 752 mmHg 66%
    16:00 +16°C° 0 mm 3 mps 752 mmHg 71%
    17:00 +14°C° 0 mm 3 mps 752 mmHg 76%
    18:00 +13°C° 0 mm 3 mps 752 mmHg 78%
    19:00 +13°C° 0 mm 3 mps 752 mmHg 80%
    20:00 +12°C° 0 mm 3 mps 752 mmHg 82%
    21:00 +12°C° 0 mm 3 mps 752 mmHg 83%
    22:00 +12°C° 0 mm 3 mps 752 mmHg 83%
    23:00 +11°C° 0 mm 3 mps 752 mmHg 84%

    21 October, Monday

    Time Temperature Precipitation Wind Pressure Humidity
    00:00 +11°C° 0 mm 3 mps 752 mmHg 84%
    01:00 +11°C° 0 mm 3 mps 752 mmHg 84%
    02:00 +11°C° 0 mm 3 mps 752 mmHg 84%
    03:00 +10°C° 0 mm 3 mps 752 mmHg 85%
    04:00 +10°C° 0 mm 3 mps 752 mmHg 85%
    05:00 +10°C° 0 mm 3 mps 752 mmHg 86%
    06:00 +10°C° 0 mm 3 mps 752 mmHg 83%
    07:00 +11°C° 0 mm 3 mps 752 mmHg 80%
    08:00 +11°C° 0 mm 4 mps 752 mmHg 76%
    09:00 +13°C° 0 mm 4 mps 752 mmHg 71%
    10:00 +14°C° 0 mm 4 mps 752 mmHg 65%
    11:00 +17°C° 0 mm 4 mps 752 mmHg 59%
    12:00 +17°C° 0 mm 4 mps 751 mmHg 58%
    13:00 +17°C° 0 mm 5 mps 751 mmHg 57%
    14:00 +17°C° 0 mm 5 mps 751 mmHg 55%
    15:00 +17°C° 0 mm 4 mps 751 mmHg 61%
    16:00 +15°C° 0 mm 4 mps 750 mmHg 66%
    17:00 +14°C° 0 mm 3 mps 750 mmHg 72%
    18:00 +13°C° 0 mm 3 mps 750 mmHg 73%
    19:00 +13°C° 0 mm 3 mps 750 mmHg 75%
    20:00 +12°C° 0 mm 3 mps 750 mmHg 77%
    21:00 +12°C° 0 mm 3 mps 750 mmHg 78%
    22:00 +12°C° 0 mm 3 mps 750 mmHg 78%
    23:00 +11°C° 0 mm 3 mps 750 mmHg 79%

    22 October, Tuesday

    Time Temperature Precipitation Wind Pressure Humidity
    00:00 +11°C° 0 mm 4 mps 749 mmHg 79%
    01:00 +11°C° 0 mm 4 mps 749 mmHg 79%
    02:00 +11°C° 0 mm 4 mps 749 mmHg 79%
    03:00 +11°C° 0 mm 4 mps 749 mmHg 79%
    04:00 +11°C° 0 mm 4 mps 749 mmHg 79%
    05:00 +10°C° 0 mm 4 mps 748 mmHg 79%
    06:00 +10°C° 0 mm 5 mps 748 mmHg 77%
    07:00 +10°C° 0 mm 5 mps 748 mmHg 75%
    08:00 +12°C° 0 mm 5 mps 748 mmHg 73%
    09:00 +13°C° 0 mm 6 mps 747 mmHg 68%
    10:00 +15°C° 0 mm 6 mps 747 mmHg 63%
    11:00 +16°C° 0 mm 7 mps 747 mmHg 58%
    12:00 +17°C° 0 mm 7 mps 747 mmHg 57%
    13:00 +17°C° 0 mm 7 mps 746 mmHg 56%
    14:00 +18°C° 0 mm 7 mps 746 mmHg 56%
    15:00 +17°C° 0 mm 6 mps 745 mmHg 60%
    16:00 +16°C° 0 mm 6 mps 745 mmHg 65%
    17:00 +15°C° 0 mm 5 mps 745 mmHg 70%
    18:00 +14°C° 0 mm 5 mps 745 mmHg 74%
    19:00 +14°C° 0 mm 5 mps 745 mmHg 78%
    20:00 +13°C° 0 mm 5 mps 745 mmHg 82%
    21:00 +13°C° 0 mm 5 mps 745 mmHg 85%
    22:00 +13°C° 0 mm 4 mps 745 mmHg 88%
    23:00 +12°C° 0 mm 4 mps 745 mmHg 91%
    Show more